S51DM-13 Weather Reports


time (UTC)temp
C
wind
direction
speed
KPH
gust
KPH
rain 1hr
cm
rain 24hr
cm
rain mn
cm
humidity
%
barometer
mb
20260507105405 20 104 4.8 17.7 0.00 0.00 0.00 58 1011.2
20260507104504 21 142 4.8 12.9 0.00 0.00 0.00 55 1011.0
20260507103605 21 125 4.8 12.9 0.00 0.00 0.00 53 1011.1
20260507102705 20 90 4.8 16.1 0.00 0.00 0.00 55 1011.2
20260507101803 20 119 6.4 16.1 0.00 0.00 0.00 54 1011.3
20260507100903 20 91 4.8 14.5 0.00 0.00 0.00 57 1011.1
20260507100220 19 66 3.2 14.5 0.00 0.00 0.00 58 1011.3
20260507095617 20 124 3.2 14.5 0.00 0.00 0.00 56 1011.3
20260507094505 19 157 3.2 14.5 0.00 0.00 0.00 58 1011.5
20260507093605 18 115 3.2 9.7 0.00 0.00 0.00 61 1011.5
20260507092704 18 108 3.2 9.7 0.00 0.00 0.00 66 1011.6
20260507091805 17 140 1.6 4.8 0.00 0.00 0.00 65 1011.9
20260507090903 17 108 3.2 12.9 0.00 0.00 0.00 66 1012.2
20260507090005 17 102 3.2 12.9 0.00 0.00 0.00 67 1012.0
20260507085403 17 117 1.6 11.3 0.00 0.00 0.00 67 1011.9
20260507084504 17 76 1.6 9.7 0.00 0.00 0.00 66 1012.0
20260507083819 16 111 1.6 9.7 0.00 0.00 0.00 67 1011.5
20260507082919 16 157 1.6 11.3 0.00 0.00 0.00 68 1011.6
20260507082018 16 113 1.6 9.7 0.00 0.00 0.00 68 1011.8
20260507081120 16 106 3.2 9.7 0.00 0.00 0.00 69 1011.3
20260507080219 15 155 1.6 4.8 0.00 0.00 0.00 70 1011.3
20260507075405 15 146 1.6 6.4 0.00 0.00 0.00 71 1011.0
20260507074503 15 129 1.6 9.7 0.00 0.00 0.00 70 1011.2
20260507073603 15 135 1.6 9.7 0.00 0.00 0.00 68 1011.3
20260507072705 15 123 3.2 9.7 0.00 0.00 0.00 68 1011.1
20260507071805 15 105 1.6 6.4 0.00 0.00 0.00 69 1011.1
20260507070903 15 142 3.2 9.7 0.00 0.00 0.00 69 1011.0
20260507070008 15 136 1.6 9.7 0.00 0.00 0.00 69 1010.8
20260507065618 15 135 1.6 9.7 0.00 0.00 0.00 69 1010.6
20260507064505 15 183 1.6 4.8 0.00 0.00 0.00 70 1010.8
20260507063605 15 120 1.6 6.4 0.00 0.00 0.00 71 1010.5
20260507062703 15 152 1.6 6.4 0.00 0.00 0.00 71 1010.5
20260507062019 15 122 3.2 9.7 0.00 0.00 0.00 71 1010.1
20260507060905 15 90 3.2 11.3 0.00 0.00 0.00 71 1010.2
20260507060218 15 78 1.6 9.7 0.00 0.00 0.00 72 1010.3
20260507055403 15 115 1.6 9.7 0.00 0.00 0.00 71 1010.0
20260507054505 15 120 3.2 6.4 0.00 0.00 0.00 72 1009.9
20260507053818 15 92 3.2 9.7 0.00 0.00 0.00 72 1009.8
20260507052704 14 144 3.2 11.3 0.00 0.00 0.00 72 1009.6
20260507051805 14 156 1.6 6.4 0.00 0.00 0.00 72 1009.9
20260507050903 14 142 3.2 9.7 0.00 0.00 0.00 73 1010.1
20260507050003 14 115 3.2 9.7 0.00 0.00 0.00 73 1010.1
20260507045405 14 154 3.2 9.7 0.00 0.00 0.00 73 1009.8
20260507044505 14 114 3.2 9.7 0.00 0.00 0.00 73 1009.8
20260507043818 14 93 3.2 9.7 0.00 0.00 0.00 73 1009.9
20260507042919 13 121 3.2 11.3 0.00 0.00 0.00 74 1009.8
20260507041803 14 115 3.2 12.9 0.00 0.00 0.00 73 1010.0
20260507040905 14 151 3.2 9.7 0.00 0.00 0.00 74 1009.5
20260507040003 14 109 3.2 9.7 0.00 0.00 0.00 73 1009.6
20260507035619 13 98 1.6 4.8 0.00 0.00 0.00 74 1009.3
20260507034505 14 136 1.6 11.3 0.00 0.00 0.00 73 1009.3
20260507033605 14 149 1.6 4.8 0.00 0.00 0.00 73 1009.4
20260507032704 14 154 3.2 9.7 0.00 0.00 0.00 73 1009.5
20260507031803 13 167 3.2 9.7 0.00 0.00 0.00 73 1009.5
20260507031117 13 146 3.2 9.7 0.00 0.00 0.00 73 1009.3
20260507030005 13 127 3.2 9.7 0.00 0.00 0.00 73 1009.3
20260507025403 13 144 1.6 6.4 0.00 0.00 0.00 73 1009.2
20260507024503 13 155 1.6 6.4 0.00 0.00 0.00 74 1009.2
20260507023605 13 135 3.2 11.3 0.00 0.00 0.00 73 1009.4
20260507022705 13 105 1.6 11.3 0.00 0.00 0.00 73 1009.5
20260507021805 13 139 3.2 9.7 0.00 0.00 0.00 73 1009.6
20260507020905 13 108 3.2 9.7 0.00 0.00 0.00 73 1009.6
20260507020003 13 148 1.6 6.4 0.00 0.00 0.00 74 1009.4
20260507015403 13 133 1.6 4.8 0.00 0.00 0.00 74 1009.2
20260507014503 13 147 1.6 4.8 0.00 0.00 0.00 74 1009.3
20260507013603 13 118 1.6 6.4 0.00 0.00 0.00 75 1009.6
20260507012704 14 125 1.6 6.4 0.00 0.00 0.00 74 1009.2
20260507011805 14 137 1.6 12.9 0.00 0.00 0.00 73 1009.3
20260507010905 14 94 1.6 12.9 0.00 0.00 0.00 73 1009.2
20260507010005 15 112 1.6 6.4 0.00 0.00 0.00 72 1009.2
20260507005403 15 124 1.6 6.4 0.00 0.00 0.00 73 1009.3
20260507004503 14 111 1.6 6.4 0.00 0.00 0.00 74 1009.1
20260507003603 14 132 1.6 6.4 0.00 0.00 0.00 76 1009.4
20260507002918 14 128 1.6 9.7 0.00 0.00 0.00 76 1009.4
20260507001803 14 105 1.6 6.4 0.00 0.00 0.00 77 1009.4
20260507001119 14 124 1.6 6.4 0.00 0.00 0.00 77 1009.5
20260507000005 14 153 1.6 9.7 0.00 0.00 0.00 77 1009.7
20260506235425 14 136 1.6 4.8 0.00 0.00 0.00 77 1009.5
20260506234719 15 138 1.6 6.4 0.00 0.00 0.00 76 1009.6
20260506233603 15 96 3.2 9.7 0.00 0.00 0.00 76 1009.8
20260506232705 15 135 1.6 6.4 0.00 0.00 0.00 76 1009.6
20260506231805 15 129 1.6 6.4 0.00 0.00 0.00 76 1009.5
20260506230903 15 114 1.6 6.4 0.00 0.00 0.00 75 1009.7
20260506230006 15 104 1.6 6.4 0.00 0.00 0.00 75 1009.5
20260506225403 15 106 1.6 11.3 0.00 0.00 0.00 74 1009.7
20260506224505 15 110 1.6 11.3 0.00 0.00 0.00 74 1009.5
20260506223604 15 121 1.6 4.8 0.00 0.00 0.00 73 1009.5
20260506222705 15 170 1.6 9.7 0.00 0.00 0.00 73 1009.8
20260506221803 15 146 1.6 9.7 0.00 0.00 0.00 72 1009.5
20260506220903 15 123 1.6 4.8 0.00 0.00 0.00 71 1009.5
20260506220219 15 130 1.6 4.8 0.00 0.00 0.00 71 1009.4
20260506215405 15 142 1.6 6.4 0.00 0.00 0.00 71 1009.5
20260506214718 15 135 1.6 9.7 0.00 0.00 0.00 71 1009.4
20260506213605 15 109 1.6 4.8 0.00 0.00 0.00 72 1009.5
20260506212919 15 88 1.6 4.8 0.00 0.00 0.00 73 1009.2
20260506212018 15 108 1.6 3.2 0.00 0.00 0.00 73 1009.0
20260506211117 15 105 1.6 3.2 0.00 0.00 0.00 72 1009.0
20260506210003 14 135 1.6 6.4 0.00 0.00 0.00 73 1009.2
20260506205405 14 125 0.0 3.2 0.00 0.00 0.00 74 1008.8
20260506204503 14 110 1.6 3.2 0.00 0.00 0.00 74 1009.1
20260506203817 14 109 0.0 3.2 0.00 0.00 0.00 76 1009.0
20260506202703 14 112 0.0 1.6 0.00 0.00 0.00 76 1009.0
20260506201805 14 112 0.0 1.6 0.00 0.00 0.00 75 1009.1
20260506200905 14 0 0.0 0.0 0.00 0.00 0.00 74 1008.9
20260506200005 15 0 0.0 0.0 0.00 0.00 0.00 74 1009.1
20260506195405 15 0 0.0 0.0 0.00 0.00 0.00 73 1008.8
20260506194719 15 113 0.0 1.6 0.00 0.00 0.00 73 1008.7
20260506193604 15 0 0.0 0.0 0.00 0.00 0.00 74 1008.6
20260506192705 15 0 0.0 0.0 0.00 0.00 0.00 73 1008.6
20260506191803 15 0 0.0 0.0 0.00 0.00 0.00 71 1008.5
20260506191119 16 112 0.0 1.6 0.00 0.00 0.00 68 1008.5
20260506190003 16 98 0.0 6.4 0.00 0.00 0.00 67 1008.2
20260506185403 16 120 0.0 3.2 0.00 0.00 0.00 66 1008.2
20260506184505 16 166 1.6 6.4 0.00 0.00 0.00 66 1008.0
20260506183818 17 118 1.6 12.9 0.00 0.00 0.00 65 1007.9
20260506182705 17 109 1.6 4.8 0.00 0.00 0.00 65 1008.0
20260506181804 17 126 1.6 4.8 0.00 0.00 0.00 64 1008.1
20260506180905 17 115 1.6 6.4 0.00 0.00 0.00 63 1007.9
20260506180006 17 233 1.6 6.4 0.00 0.00 0.00 62 1007.8
20260506175617 17 161 3.2 9.7 0.00 0.00 0.00 62 1007.7
20260506174503 18 115 3.2 16.1 0.00 0.00 0.00 62 1007.9
20260506173605 18 140 1.6 4.8 0.00 0.00 0.00 62 1007.4
20260506172705 18 159 1.6 6.4 0.00 0.00 0.00 61 1007.8
20260506172016 18 122 1.6 11.3 0.00 0.00 0.00 60 1007.7
20260506170903 18 94 3.2 9.7 0.00 0.00 0.00 59 1007.9
20260506170003 19 63 3.2 11.3 0.00 0.00 0.00 58 1007.6
20260506165405 20 98 3.2 11.3 0.00 0.00 0.00 56 1007.6
20260506164505 20 123 3.2 14.5 0.00 0.00 0.00 57 1007.7
20260506163603 19 133 3.2 29.0 0.00 0.00 0.00 58 1007.7
20260506162704 19 83 4.8 29.0 0.00 0.00 0.00 59 1007.8
20260506161803 19 112 4.8 14.5 0.00 0.00 0.00 59 1008.1
20260506161119 18 200 4.8 14.5 0.00 0.00 0.00 59 1008.1
20260506160003 18 95 4.8 12.9 0.00 0.00 0.00 59 1008.1
20260506155405 18 105 4.8 12.9 0.00 0.00 0.00 59 1008.2
20260506154505 19 96 3.2 11.3 0.00 0.00 0.00 58 1008.1
20260506153603 19 169 3.2 14.5 0.00 0.00 0.00 57 1007.9
20260506152703 19 114 3.2 16.1 0.00 0.00 0.00 57 1007.9
20260506152020 20 87 3.2 14.5 0.00 0.00 0.00 57 1008.2
20260506151119 20 67 4.8 11.3 0.00 0.00 0.00 56 1008.3
20260506150005 20 138 3.2 14.5 0.00 0.00 0.00 54 1008.3
20260506145403 20 150 4.8 14.5 0.00 0.00 0.00 55 1008.1
20260506144505 20 328 4.8 14.5 0.00 0.00 0.00 54 1008.2
20260506143605 20 125 1.6 11.3 0.00 0.00 0.00 55 1008.2
20260506142918 20 98 3.2 11.3 0.00 0.00 0.00 55 1008.3
20260506141805 20 173 3.2 12.9 0.00 0.00 0.00 55 1008.5
20260506140903 20 101 3.2 12.9 0.00 0.00 0.00 54 1008.5
20260506140006 21 118 3.2 12.9 0.00 0.00 0.00 53 1008.4
20260506135405 21 88 3.2 14.5 0.00 0.00 0.00 52 1008.6
20260506134505 20 118 4.8 14.5 0.00 0.00 0.00 55 1008.6
20260506133603 21 112 3.2 11.3 0.00 0.00 0.00 53 1008.8
20260506132918 21 123 3.2 11.3 0.00 0.00 0.00 53 1008.9
20260506131805 20 150 4.8 12.9 0.00 0.00 0.00 54 1009.0
20260506130903 20 68 6.4 17.7 0.00 0.00 0.00 55 1009.1
20260506130004 20 147 6.4 17.7 0.00 0.00 0.00 55 1009.1
20260506125403 20 156 4.8 17.7 0.00 0.00 0.00 53 1009.2
20260506124505 21 108 4.8 12.9 0.00 0.00 0.00 52 1009.1
20260506123603 20 159 6.4 20.9 0.00 0.00 0.00 53 1009.3
20260506122705 19 109 6.4 22.5 0.00 0.00 0.00 55 1009.2
20260506121805 20 116 6.4 24.1 0.00 0.00 0.00 54 1009.4
20260506120905 20 95 4.8 22.5 0.00 0.00 0.00 53 1009.6
20260506120005 19 183 6.4 16.1 0.00 0.00 0.00 55 1009.2
20260506115405 19 147 8.0 20.9 0.00 0.00 0.00 55 1009.3
20260506114718 19 106 8.0 22.5 0.00 0.00 0.00 54 1009.4
20260506113604 21 87 6.4 20.9 0.00 0.00 0.00 50 1009.4
20260506112705 21 180 4.8 25.7 0.00 0.00 0.00 48 1009.5
20260506111803 22 174 3.2 14.5 0.00 0.00 0.00 49 1009.4
20260506110905 21 315 4.8 20.9 0.00 0.00 0.00 52 1009.4
20260506110005 21 84 4.8 16.1 0.00 0.00 0.00 53 1009.6